Date_and_time,latitude,longitude,wind_speed,RelWindDirFrom,WindDirFrom,air_pressure,air_temperature,relative_humidity,Temp,platform_speed_wrt_ground,air_pressure_at_mean_sea_level,platform_orientation
2019-11-13 23:50,50.63044,-96.9807733333333,5.0,7.7,312,991.40,-8.1,66,0.97,0.0,1020.22,90.0
2019-11-14 00:00,50.63044,-96.980775,3.4,5.1,312,991.57,-8.1,67,0.97,0.0,1020.39,360.0
2019-11-14 00:10,50.63044,-96.980775,3.8,5.5,315,991.56,-8.1,67,0.96,0.0,1020.39,360.0
2019-11-14 00:20,50.6304716666667,-96.9808066666667,3.5,4.7,308,991.63,-8.2,68,0.96,0.0,1020.47,360.0
2019-11-14 00:30,50.630435,-96.9807716666667,4.2,6.0,298,991.74,-8.2,69,0.96,0.0,1020.59,360.0
2019-11-14 00:40,50.630435,-96.980775,4.2,6.9,294,991.89,-8.3,71,0.96,0.0,1020.75,360.0
2019-11-14 00:50,50.630435,-96.980775,3.1,4.5,290,991.85,-8.3,72,0.96,0.0,1020.71,360.0
2019-11-14 01:00,50.6304333333333,-96.980775,3.2,5.1,279,991.88,-8.4,73,0.95,0.0,1020.74,0.0
2019-11-14 01:10,50.6304316666667,-96.980775,3.5,5.6,272,991.96,-8.4,75,0.95,0.0,1020.82,0.0
2019-11-14 01:20,50.63043,-96.9807733333333,3.8,5.7,278,991.96,-8.4,76,0.95,0.0,1020.82,0.0
2019-11-14 01:30,50.630425,-96.98079,3.2,5.3,288,991.93,-8.4,75,0.94,0.0,1020.79,0.0
2019-11-14 01:40,50.6304316666667,-96.9807783333333,3.2,4.6,288,991.96,-8.4,74,0.94,0.0,1020.82,0.0
2019-11-14 01:50,50.6304333333333,-96.980785,4.0,5.7,292,992.01,-8.4,73,0.94,0.0,1020.87,0.0
2019-11-14 02:00,50.6304316666667,-96.9807766666667,2.8,4.8,290,992.08,-8.4,73,0.94,0.0,1020.95,194.5
2019-11-14 02:10,50.63043,-96.98078,3.6,6.1,282,992.15,-8.4,73,0.94,0.0,1021.02,194.5
2019-11-14 02:20,50.63043,-96.9807783333333,3.4,5.4,268,992.15,-8.4,73,0.93,0.0,1021.02,194.5
2019-11-14 02:30,50.6304316666667,-96.9807783333333,3.6,5.9,275,992.13,-8.4,75,0.94,0.0,1021.01,194.5
2019-11-14 02:40,50.6304316666667,-96.9807783333333,3.3,4.3,264,992.25,-8.5,75,0.94,0.0,1021.14,194.5
2019-11-14 02:50,50.6304333333333,-96.9807783333333,4.4,6.3,256,992.36,-8.5,75,0.94,0.0,1021.26,194.5
2019-11-14 03:00,50.630445,-96.9807883333333,3.9,5.9,260,992.37,-8.5,77,0.95,0.0,1021.27,270.0
2019-11-14 03:10,50.6304216666667,-96.9807533333333,3.4,5.0,250,992.32,-8.6,78,0.96,0.0,1021.22,270.0
2019-11-14 03:20,50.6304383333333,-96.980775,4.1,6.9,244,992.21,-8.6,78,0.97,0.0,1021.10,270.0
2019-11-14 03:30,50.6304416666667,-96.9807766666667,4.9,7.7,267,992.21,-8.5,73,0.97,0.0,1021.10,270.0
2019-11-14 03:40,50.630435,-96.9807616666667,4.9,7.1,259,992.15,-8.6,73,0.98,0.0,1021.04,270.0
2019-11-14 03:50,50.6304416666667,-96.9807666666667,4.4,6.6,252,992.20,-8.7,74,0.98,0.0,1021.10,270.0
2019-11-14 04:00,50.6304533333333,-96.9808133333333,4.4,6.2,250,992.30,-8.7,75,0.99,0.0,1021.21,307.6
2019-11-14 04:10,50.6304483333333,-96.98078,4.7,6.6,247,992.25,-8.8,75,1.00,0.0,1021.16,307.6
2019-11-14 04:20,50.63043,-96.980755,4.4,6.2,245,992.20,-8.9,76,1.00,0.0,1021.11,307.6
2019-11-14 04:30,50.63044,-96.9807583333333,5.4,8.5,261,992.16,-8.8,72,1.00,0.0,1021.07,307.6
2019-11-14 04:40,50.6304416666667,-96.980765,3.8,5.5,249,992.13,-8.9,75,1.01,0.0,1021.05,307.6
2019-11-14 04:50,50.6304416666667,-96.980765,4.0,5.6,242,992.00,-9.0,76,1.01,0.0,1020.92,307.6
2019-11-14 05:00,50.63044,-96.980765,4.0,5.2,238,991.94,-9.1,77,1.02,0.0,1020.86,14.5
2019-11-14 05:10,50.63044,-96.9807683333333,3.2,4.4,236,991.86,-9.1,76,1.02,0.0,1020.79,14.5
2019-11-14 05:20,50.6304383333333,-96.98077,3.7,5.2,230,991.88,-9.1,76,1.02,0.0,1020.80,14.5
2019-11-14 05:30,50.6304533333333,-96.9807816666667,4.5,6.0,230,991.92,-9.1,75,1.02,0.0,1020.84,14.5
2019-11-14 05:40,50.6304483333333,-96.9807766666667,4.6,6.7,239,992.04,-9.1,74,1.02,0.0,1020.97,14.5
2019-11-14 05:50,50.6304483333333,-96.9807683333333,4.0,5.2,238,992.10,-9.2,74,1.02,0.0,1021.05,14.5
2019-11-14 06:00,50.6304483333333,-96.9807683333333,4.4,5.8,240,992.15,-9.3,73,1.02,0.0,1021.10,72.3
2019-11-14 06:10,50.630435,-96.9807583333333,4.1,5.6,239,992.15,-9.4,73,1.01,0.0,1021.11,72.3
2019-11-14 06:20,50.6304333333333,-96.980765,4.2,5.4,226,992.02,-9.5,73,1.01,0.0,1020.98,72.3
2019-11-14 06:30,50.630435,-96.9807616666667,5.3,6.9,223,991.94,-9.5,73,1.00,0.0,1020.90,72.3
2019-11-14 06:40,50.6304333333333,-96.9807633333333,5.3,7.1,218,991.86,-9.7,74,1.00,0.0,1020.84,72.3
2019-11-14 06:50,50.630435,-96.9807633333333,5.8,7.9,219,991.77,-9.8,76,1.00,0.0,1020.75,72.3
2019-11-14 07:00,50.6304366666667,-96.980765,5.6,7.3,218,991.71,-9.8,77,1.01,0.0,1020.70,117.6
2019-11-14 07:10,50.6304383333333,-96.980765,5.2,7.0,216,991.70,-9.9,78,1.01,0.0,1020.69,117.6
2019-11-14 07:20,50.63044,-96.9807666666667,5.0,7.3,216,991.64,-10.0,78,1.01,0.0,1020.64,117.6
2019-11-14 07:30,50.6304416666667,-96.9807666666667,4.3,5.5,223,991.68,-10.1,79,1.01,0.0,1020.69,117.6
2019-11-14 07:40,50.6304433333333,-96.9807666666667,5.4,7.1,216,991.61,-10.4,79,1.01,0.0,1020.63,117.6
2019-11-14 07:50,50.6304433333333,-96.9807666666667,5.1,6.7,211,991.44,-10.5,80,1.01,0.0,1020.46,117.6
2019-11-14 08:00,50.6304483333333,-96.9807833333333,5.1,7.2,206,991.38,-10.5,80,1.01,0.0,1020.42,291.5
2019-11-14 08:10,50.6304416666667,-96.9807816666667,6.0,7.8,202,991.25,-10.6,80,1.02,0.0,1020.28,291.5
2019-11-14 08:20,50.63044,-96.980775,5.9,7.7,199,991.11,-10.6,81,1.02,0.0,1020.15,291.5
2019-11-14 08:30,50.6304416666667,-96.98077,5.9,7.4,201,991.10,-10.8,82,1.01,0.0,1020.16,291.5
2019-11-14 08:40,50.6304433333333,-96.9807716666667,5.7,7.6,199,991.03,-11.0,82,1.01,0.0,1020.10,291.5
2019-11-14 08:50,50.630445,-96.9807633333333,7.2,8.8,199,990.79,-11.2,83,0.99,0.0,1019.87,291.5
2019-11-14 09:00,50.6304466666667,-96.98077,6.4,8.4,196,990.69,-11.4,84,0.97,0.0,1019.78,0.0
2019-11-14 09:10,50.6304466666667,-96.98077,7.3,8.8,187,990.41,-11.6,84,0.97,0.0,1019.51,0.0
2019-11-14 09:20,50.6304466666667,-96.98077,8.3,10.8,191,990.24,-11.9,85,0.96,0.0,1019.36,0.0
2019-11-14 09:30,50.6304716666667,-96.980795,8.9,11.7,195,989.93,-12.0,84,0.96,0.0,1019.05,0.0
2019-11-14 09:40,50.6304516666667,-96.9807716666667,7.1,9.6,205,989.97,-12.1,83,0.97,0.0,1019.12,0.0
2019-11-14 09:50,50.6304433333333,-96.9807716666667,8.1,11.4,195,989.82,-12.2,82,0.97,0.0,1018.96,0.0
2019-11-14 10:00,50.6304416666667,-96.98077,8.2,10.3,194,989.63,-12.4,83,0.97,0.0,1018.78,38.0
2019-11-14 10:10,50.6304333333333,-96.98077,9.7,12.9,192,989.27,-12.5,82,0.96,0.0,1018.43,38.0
2019-11-14 10:20,50.6304366666667,-96.9807716666667,9.6,12.6,195,989.10,-12.6,81,0.95,0.0,1018.26,38.0
2019-11-14 10:30,50.6304383333333,-96.980775,10.5,13.9,194,988.85,-12.6,81,0.94,0.0,1018.02,38.0
2019-11-14 10:40,50.6304383333333,-96.9807783333333,10.8,13.3,193,988.52,-12.7,81,0.94,0.0,1017.70,38.0
2019-11-14 10:50,50.6304416666667,-96.9807766666667,11.7,15.4,193,988.37,-12.7,80,0.94,0.0,1017.55,38.0
2019-11-14 11:00,50.6304616666667,-96.9808066666667,12.2,16.0,191,988.11,-12.8,80,0.94,0.0,1017.29,328.9
2019-11-14 11:10,50.630455,-96.98079,11.4,15.1,192,987.89,-12.8,79,0.94,0.0,1017.09,328.9
2019-11-14 11:20,50.630455,-96.9807783333333,11.4,15.5,190,987.62,-12.8,79,0.94,0.0,1016.82,328.9
2019-11-14 11:30,50.6304516666667,-96.9807783333333,11.8,14.9,193,987.49,-12.9,79,0.93,0.0,1016.70,328.9
2019-11-14 11:40,50.6304516666667,-96.9807816666667,12.0,16.0,194,987.25,-13.0,79,0.93,0.0,1016.46,328.9
2019-11-14 11:50,50.6304166666667,-96.980755,12.8,16.2,191,986.73,-13.2,79,0.93,0.0,1015.95,328.9
2019-11-14 12:00,50.6304383333333,-96.9807783333333,12.6,18.0,196,986.63,-13.2,79,0.94,0.0,1015.86,248.5
2019-11-14 12:10,50.630435,-96.9807716666667,13.8,17.3,192,986.35,-13.2,79,0.95,0.0,1015.57,248.5
2019-11-14 12:20,50.6304316666667,-96.9807816666667,13.0,16.5,193,986.29,-13.1,79,0.96,0.0,1015.50,248.5
2019-11-14 12:30,50.6304366666667,-96.980775,13.5,17.3,197,986.11,-13.0,79,0.96,0.0,1015.31,248.5
2019-11-14 12:40,50.6304433333333,-96.980775,11.9,15.2,207,986.31,-13.0,78,0.94,0.0,1015.52,248.5
2019-11-14 12:50,50.6304416666667,-96.98077,11.2,15.3,204,985.99,-12.9,78,0.95,0.0,1015.19,248.5
2019-11-14 13:00,50.6304416666667,-96.98077,10.8,16.0,201,985.59,-12.6,78,0.96,0.0,1014.76,0.0
2019-11-14 13:10,50.63044,-96.98077,10.1,13.2,210,985.78,-12.2,77,0.96,0.0,1014.94,0.0
2019-11-14 13:20,50.6304366666667,-96.9807733333333,9.7,12.4,202,985.42,-11.8,78,0.96,0.0,1014.55,0.0
2019-11-14 13:30,50.6304316666667,-96.9807883333333,11.3,15.5,198,984.97,-11.3,77,0.96,0.0,1014.07,0.0
2019-11-14 13:40,50.630435,-96.9807783333333,13.5,17.9,196,984.38,-10.9,77,0.96,0.0,1013.44,0.0
2019-11-14 13:50,50.6304416666667,-96.98077,9.6,14.1,222,985.24,-10.3,75,0.96,0.0,1014.29,0.0
2019-11-14 14:00,50.6304416666667,-96.9807666666667,10.7,14.5,217,985.25,-9.8,74,0.96,0.0,1014.27,133.8
2019-11-14 14:10,50.6304366666667,-96.9807516666667,9.5,14.1,218,985.41,-9.3,73,0.95,0.0,1014.41,133.8
2019-11-14 14:20,50.630445,-96.9807633333333,8.5,12.0,223,985.67,-8.9,73,0.94,0.0,1014.65,133.8
2019-11-14 14:30,50.6304433333333,-96.9807633333333,7.8,10.6,227,985.72,-8.5,73,0.94,0.0,1014.68,133.8
2019-11-14 14:40,50.6304416666667,-96.9807683333333,8.8,13.1,235,985.82,-8.0,73,0.94,0.0,1014.75,133.8
2019-11-14 14:50,50.6304433333333,-96.98077,10.5,16.1,236,985.85,-7.7,73,0.94,0.0,1014.74,133.8
2019-11-14 15:00,50.6304583333333,-96.9807866666667,9.6,15.4,235,985.89,-7.6,74,0.94,0.0,1014.76,336.5
2019-11-14 15:10,50.6304516666667,-96.980775,8.5,12.0,240,986.01,-7.4,75,0.94,0.0,1014.85,336.5
2019-11-14 15:20,50.63044,-96.980775,7.3,10.6,241,986.39,-7.2,75,0.95,0.0,1015.20,336.5
2019-11-14 15:30,50.63046,-96.98077,6.2,9.0,249,986.51,-6.6,76,0.96,0.0,1015.27,336.5
2019-11-14 15:40,50.6304533333333,-96.98076,7.3,10.7,253,986.52,-5.9,77,0.96,0.0,1015.20,336.5
2019-11-14 15:50,50.6304483333333,-96.9807616666667,6.9,10.3,250,986.56,-5.8,77,0.96,0.0,1015.22,336.5
2019-11-14 16:00,50.630445,-96.9807616666667,6.7,10.9,244,986.48,-5.6,77,0.97,0.0,1015.10,90.0
2019-11-14 16:10,50.6304433333333,-96.9807633333333,5.9,8.9,261,986.61,-5.2,78,0.97,0.0,1015.18,90.0
2019-11-14 16:20,50.6304433333333,-96.9807633333333,5.7,9.3,275,986.75,-4.6,78,0.97,0.0,1015.28,90.0
2019-11-14 16:30,50.6304466666667,-96.9807716666667,9.2,18.3,293,986.83,-3.8,75,0.98,0.0,1015.29,90.0
2019-11-14 16:40,50.6304483333333,-96.9807683333333,12.2,19.4,302,987.01,-3.4,71,0.98,0.0,1015.43,90.0
2019-11-14 16:50,50.6304516666667,-96.9807616666667,10.9,18.7,304,987.21,-3.3,69,1.00,0.0,1015.63,90.0
2019-11-14 17:00,50.63045,-96.9807666666667,11.0,17.1,314,987.38,-3.3,66,1.00,0.0,1015.79,360.0
2019-11-14 17:10,50.6304483333333,-96.9807633333333,12.6,20.0,320,987.53,-3.4,66,0.99,0.0,1015.94,360.0
2019-11-14 17:20,50.63045,-96.980765,14.3,22.0,320,987.70,-3.5,66,0.98,0.0,1016.10,360.0
2019-11-14 17:30,50.6304516666667,-96.9807633333333,13.9,18.4,326,987.91,-3.7,67,0.98,0.0,1016.28,360.0
2019-11-14 17:40,50.6304516666667,-96.9807633333333,12.9,20.4,322,988.01,-3.9,67,0.98,0.0,1016.39,360.0
2019-11-14 17:50,50.6304516666667,-96.9807633333333,13.4,21.6,327,988.19,-3.9,67,0.98,0.0,1016.56,360.0
2019-11-14 18:00,50.6304533333333,-96.980765,14.4,20.4,323,988.18,-3.7,66,0.98,0.0,1016.52,107.7
2019-11-14 18:10,50.630455,-96.9807666666667,11.6,19.3,317,988.43,-3.7,65,1.00,0.0,1016.74,107.7
2019-11-14 18:20,50.6304533333333,-96.9807666666667,11.1,18.0,315,988.65,-3.5,64,0.99,0.0,1016.92,107.7
2019-11-14 18:30,50.630455,-96.9807666666667,12.5,17.9,314,988.67,-3.3,62,1.00,0.0,1016.91,107.7
2019-11-14 18:40,50.63045,-96.980775,13.8,20.0,331,988.73,-3.3,62,1.00,0.0,1016.96,107.7
2019-11-14 18:50,50.6304533333333,-96.980765,11.9,16.3,318,988.86,-3.2,60,1.01,0.0,1017.10,107.7
2019-11-14 19:00,50.63045,-96.9807816666667,12.4,18.8,310,988.94,-3.0,58,1.02,0.0,1017.17,305.3
2019-11-14 19:10,50.6304533333333,-96.98077,11.5,16.3,322,989.18,-2.9,58,1.02,0.0,1017.41,305.3
2019-11-14 19:20,50.6304533333333,-96.98077,12.5,19.4,312,989.29,-3.0,57,1.02,0.0,1017.54,305.3
2019-11-14 19:30,50.6304533333333,-96.980765,12.5,17.8,318,989.50,-3.0,56,1.02,0.0,1017.77,305.3
2019-11-14 19:40,50.6304533333333,-96.980765,11.5,20.1,314,989.75,-2.8,56,1.02,0.0,1018.02,305.3
2019-11-14 19:50,50.6304533333333,-96.9807666666667,12.9,20.8,326,989.74,-2.9,56,1.02,0.0,1018.00,305.3
2019-11-14 20:00,50.630455,-96.980765,11.8,18.7,328,989.77,-2.9,57,1.01,0.0,1018.03,90.0
2019-11-14 20:10,50.630455,-96.980765,9.8,16.9,323,989.89,-2.9,57,1.01,0.0,1018.14,90.0
2019-11-14 20:20,50.630455,-96.9807716666667,10.4,16.1,325,989.93,-2.8,57,1.01,0.0,1018.16,90.0
2019-11-14 20:30,50.6304566666667,-96.98077,9.9,15.3,328,990.11,-3.0,57,1.02,0.0,1018.36,90.0
2019-11-14 20:40,50.6304533333333,-96.9807666666667,9.9,13.9,331,990.30,-3.0,58,1.02,0.0,1018.56,90.0
2019-11-14 20:50,50.63045,-96.9807683333333,10.0,14.2,332,990.38,-3.0,58,1.02,0.0,1018.64,90.0
2019-11-14 21:00,50.6304516666667,-96.9807633333333,8.3,13.2,334,990.52,-3.0,58,1.01,0.0,1018.77,90.0
2019-11-14 21:10,50.6304516666667,-96.9807616666667,8.2,11.6,337,990.70,-2.9,58,1.01,0.0,1018.95,90.0
2019-11-14 21:20,50.6304516666667,-96.9807616666667,7.4,13.3,338,990.82,-2.9,59,1.00,0.0,1019.08,90.0
2019-11-14 21:30,50.6304533333333,-96.9807633333333,8.9,15.0,334,990.87,-2.7,58,1.01,0.0,1019.11,90.0
2019-11-14 21:40,50.6304533333333,-96.9807616666667,8.1,11.6,331,991.05,-2.7,57,1.02,0.0,1019.30,90.0
2019-11-14 21:50,50.6304533333333,-96.980765,6.1,9.8,344,991.27,-2.7,59,1.02,0.0,1019.53,90.0
2019-11-14 22:00,50.6304516666667,-96.980765,5.9,8.0,346,991.34,-2.7,59,1.02,0.0,1019.60,90.0
2019-11-14 22:10,50.63043,-96.9807816666667,6.8,9.7,342,991.54,-3.2,60,1.02,0.0,1019.82,90.0
2019-11-14 22:20,50.6304483333333,-96.9807683333333,6.0,9.0,349,991.72,-3.3,62,1.02,0.0,1020.02,90.0
2019-11-14 22:30,50.6304466666667,-96.98077,6.4,8.7,342,991.78,-3.4,61,1.03,0.0,1020.10,90.0
2019-11-14 22:40,50.6304466666667,-96.9807683333333,5.8,7.5,340,991.94,-3.7,62,1.03,0.0,1020.27,90.0
2019-11-14 22:50,50.6304483333333,-96.98077,6.0,9.1,346,992.10,-4.1,64,1.04,0.0,1020.45,90.0
2019-11-14 23:00,50.63045,-96.9807683333333,5.7,8.0,347,992.33,-4.2,67,1.04,0.0,1020.70,90.0
2019-11-14 23:10,50.6304516666667,-96.9807683333333,5.3,7.3,341,992.50,-4.4,67,1.04,0.0,1020.88,90.0
2019-11-14 23:20,50.6304533333333,-96.98077,7.0,9.4,351,992.44,-4.5,68,1.05,0.0,1020.81,90.0
2019-11-14 23:30,50.6304533333333,-96.98077,7.4,9.2,355,992.45,-4.6,71,1.06,0.0,1020.83,90.0
2019-11-14 23:40,50.6304533333333,-96.98077,7.8,9.9,347,992.56,-4.8,71,1.07,0.0,1020.95,90.0
2019-11-14 23:50,50.6304533333333,-96.98077,7.5,9.7,344,992.71,-5.1,71,1.08,0.0,1021.12,90.0
